Regional Weather Roundup
Issued by NWS Spokane, WA

Home | Current Version | Previous Version | Text Only | Print | Product List | Glossary On
Versions: 1 2 3 4 5 6 7 8 9 10 11 12 13 14 15 16 17 18 19 20 21 22 23 24 25 26 27 28 29 30 31 32 33 34 35 36 37 38 39 40 41 42 43 44 45 46 47 48 49 50
000
NZUS01 KOTX 250025
RWROTX

Eastern Washington/Northern Idaho Roundup
National Weather Service, Spokane WA
500 PM PDT SAT JUN 24 2017

Note: "fair" indicated few or no clouds below 12,000 feet with no
significant weather and/or obstructions to visibility.

...Northeast Washington and Northern Idaho Panhandle...

CITY           SKY/WX    TMP DP  RH WIND       PRES   REMARKS
Spokane Intl   MOSUNNY   86  33  15 NE5       30.18F
Spokane Downto SUNNY     88  38  17 E7        30.16F
Coeur d Alene  SUNNY     85  36  17 VRB7      30.17F
Deer Park      SUNNY     85  32  15 N6        30.17F
Sandpoint      SUNNY     82  36  18 S3        30.16F
Bonners Ferry  FAIR      82  37  20 S3        30.16F

...Southeast Washington and southern Idaho Panhandle...

CITY           SKY/WX    TMP DP  RH WIND       PRES   REMARKS
Walla Walla    SUNNY     94  38  14 NE14      30.08F
Pullman/Moscow SUNNY     83  41  22 N6        30.20F
Lewiston       SUNNY     90  30  11 N5        30.10F
Lowell           N/A     86  52  30 SW3       30.07F
Grangeville    FAIR      81  34  18 N8        30.20S

...Columbia Basin...

CITY           SKY/WX    TMP DP  RH WIND       PRES   REMARKS
Ephrata        SUNNY     93  28  10 VRB7      30.10F
Moses Lake     SUNNY     92  30  11 VRB6      30.10F
Pasco          SUNNY     94  44  17 NW8       30.06F HX  90
Richland       CLEAR     94  33  11 CALM      30.04F
Hermiston      SUNNY     95  34  11 NE10      30.05F HX  90
Pendleton      SUNNY     90  41  18 N14G21    30.08F

...East Slopes Cascades...

CITY           SKY/WX    TMP DP  RH WIND       PRES   REMARKS
The Dalles     SUNNY     99  38  12 E8        30.00F HX  94
Yakima         SUNNY     94  37  13 E8        30.09F
Ellensburg     SUNNY     93  35  13 S6        30.12F
Stampede Pass  SUNNY     79  42  26 VRB5      30.25F
Wenatchee      SUNNY     92  32  12 VRB5      30.09F
Omak           SUNNY     91  32  12 CALM      30.11F
Chelan           N/A     90  36  14 MISG        N/A
Sunnyside      CLEAR     88  46  23 N7        30.06F

...Southern British Columbia...

CITY           SKY/WX    TMP DP  RH WIND       PRES   REMARKS
Penticton      MOSUNNY   86  45  23 NW7       30.09F
Castlegar      MOSUNNY   88  39  18 VRB5      30.11F
Cranbrook      MOSUNNY   81  37  21 VRB3      30.20F
Osoyoos          N/A     90  39  17 SE2         N/A
Creston          N/A     82  37  20 NW7         N/A

...Western Montana...

CITY           SKY/WX    TMP DP  RH WIND       PRES   REMARKS
Kalispell      CLEAR     80  41  24 S3        30.21F
Missoula       SUNNY     81  33  17 N13       30.20F

...Neighboring Cities...

CITY           SKY/WX    TMP DP  RH WIND       PRES   REMARKS
Seattle        MOSUNNY   88  52  29 N13       30.04F
Portland       SUNNY     98  39  13 E15G21    29.93F HX  93
Boise          SUNNY     88  32  13 N5        30.10F
Great Falls    PTSUNNY   74  35  24 VRB6      30.29S
Calgary        MOSUNNY   70  36  28 E6        30.31F



USA.gov is the U.S. government's official web portal to all federal, state and local government web resources and services.